Temp
5 5 4 5 5 5 5 5 5 6 5 5 5 5 4 4 4 3 3 2 2 1 1 0 -0 -1 -2 -2 -2 -2 -2 -2 -2 -2 -2 -2 -3 -3 -3 -4 -4 -6 -7 -8
4 4 4 4 4 4 4 4 4 5 5 5 5 5 4 4 4 3 2 2 2 1 1 0 -1 -1 -2 -2 -2 -2 -3 -3 -2 -2 -2 -3 -3 -3 -4 -4 -5 -7 -8 -8
3 3 3 3 3 3 3 3 4 4 4 4 4 4 5 5 5 4 3 2 1 1 0 -0 -1 -1 -2 -2 -2 -3 -3 -3 -3 -3 -3 -3 -4 -4 -5 -5 -6 -8 -9 -9
2 3 3 3 3 3 3 4 4 4 4 4 3 2 4 5 5 5 3 2 2 1 1 0 -1 -2 -2 -2 -2 -3 -3 -3 -3 -3 -3 -4 -4 -4 -4 -5 -7 -8 -9 -9
2 2 3 2 2 3 4 4 4 4 4 3 3 2 5 5 4 4 4 3 2 1 1 -0 -1 -1 -1 -2 -2 -3 -3 -3 -3 -3 -4 -4 -4 -5 -5 -6 -8 -9 -9 -9
2 2 2 2 2 3 3 3 4 4 3 -1 3 3 4 4 4 4 4 4 2 2 1 0 -1 -1 -1 -2 -2 -3 -3 -3 -3 -4 -4 -4 -5 -5 -6 -7 -8 -9 -9 -9
2 2 2 2 2 2 2 3 2 -1 -2 -1 2 2 4 4 4 4 4 4 3 2 1 1 0 -1 -2 -2 -3 -3 -3 -3 -3 -4 -4 -5 -5 -5 -6 -7 -8 -9 -9 -9
2 2 2 2 2 2 0 1 1 -4 -3 -1 2 2 4 4 4 4 4 4 3 2 2 1 -0 -1 -2 -2 -3 -3 -3 -3 -3 -4 -4 -5 -5 -6 -6 -7 -8 -9 -10 -10
1 2 2 1 2 2 1 0 -1 -0 -1 -2 2 3 3 3 4 4 5 4 4 3 2 1 -0 -1 -2 -2 -3 -3 -3 -3 -3 -4 -5 -5 -6 -6 -6 -7 -9 -9 -10 -10
0 1 1 1 1 1 0 -1 -1 -1 -3 -5 -0 2 3 3 3 4 4 4 3 2 1 1 -1 -1 -2 -2 -3 -3 -3 -3 -4 -5 -5 -5 -6 -6 -7 -8 -8 -9 -10 -10
-1 0 1 1 1 1 -0 -1 -1 -2 -2 -6 -6 2 2 2 2 3 3 3 3 2 1 0 -1 -1 -2 -3 -3 -3 -3 -4 -4 -5 -5 -5 -6 -6 -7 -8 -8 -9 -10 -10
-2 -1 -0 0 0 -0 0 -0 -1 -2 -2 -2 -3 -0 2 2 2 3 3 2 2 1 0 -0 -1 -2 -2 -3 -3 -3 -3 -4 -5 -5 -5 -6 -6 -7 -7 -8 -8 -9 -10 -11
-2 -2 -1 -1 -1 -0 -0 -0 -1 -1 -1 -2 -2 0 3 2 2 2 2 2 1 1 -0 -1 -1 -2 -3 -2 -3 -3 -3 -4 -4 -5 -5 -6 -6 -7 -7 -8 -8 -9 -10 -10
-2 -2 -2 -0 0 -1 -1 -1 -1 -2 -2 -1 -1 3 3 1 2 2 2 1 0 -0 -1 -1 -2 -2 -2 -2 -3 -3 -4 -4 -4 -5 -5 -6 -6 -7 -7 -8 -8 -9 -10 -10
-2 -2 -2 -2 -0 -0 -0 -1 -1 -1 1 -0 2 2 2 1 2 2 1 1 0 -0 -1 -1 -2 -2 -2 -3 -3 -3 -4 -4 -4 -5 -5 -6 -6 -7 -7 -8 -8 -9 -9 -10
-3 -3 -2 -1 -0 -1 -1 0 0 1 1 2 2 2 2 1 1 2 1 1 1 -0 -1 -1 -1 -2 -2 -2 -3 -3 -4 -4 -4 -5 -6 -6 -6 -7 -7 -8 -8 -9 -9 -10
-3 -3 -2 -2 -1 -0 -0 2 1 2 2 2 2 3 2 2 2 2 2 2 1 0 -1 -1 -1 -2 -2 -2 -3 -3 -3 -4 -4 -5 -5 -5 -6 -7 -7 -8 -8 -8 -9 -10
-3 -4 -3 -2 -1 -3 2 2 2 2 2 3 3 3 2 2 1 2 1 1 1 1 0 -1 -1 -2 -2 -3 -3 -3 -3 -4 -4 -5 -5 -5 -6 -7 -7 -8 -8 -8 -9 -10
-2 -3 -4 -2 -2 1 2 2 2 2 3 3 3 2 2 1 2 1 1 1 -0 0 -0 -1 -1 -2 -2 -3 -2 -3 -3 -4 -4 -4 -5 -5 -6 -7 -7 -8 -8 -8 -9 -9
-2 -4 -4 -3 -1 -1 2 2 2 2 3 2 3 3 2 2 2 2 2 1 1 0 -0 -1 -1 -2 -2 -2 -2 -3 -3 -4 -4 -4 -4 -5 -6 -6 -7 -7 -8 -8 -8 -9
-4 -4 -4 -3 -3 0 2 2 2 2 2 2 3 3 3 2 1 2 2 1 1 1 0 -0 -1 -2 -2 -2 -2 -3 -3 -4 -4 -4 -4 -5 -6 -6 -7 -7 -8 -8 -8 -9
-3 -3 -3 -3 -2 -0 1 1 2 2 2 2 2 2 2 2 2 2 2 2 2 1 1 -0 -1 -1 -2 -2 -2 -2 -3 -3 -3 -4 -4 -5 -5 -6 -6 -6 -7 -8 -8 -9
-3 -3 -2 -1 0 1 1 1 1 2 2 2 2 2 2 2 2 3 2 2 2 1 1 -0 -0 -1 -1 -1 -2 -2 -3 -3 -3 -3 -4 -5 -5 -5 -6 -6 -7 -7 -8 -8
-3 -2 -2 -0 0 1 1 1 1 2 2 2 2 2 2 2 2 3 2 3 2 2 1 0 -0 -1 -1 -1 -2 -2 -2 -3 -3 -3 -4 -4 -5 -5 -5 -6 -7 -7 -7 -8
-4 -2 -1 -1 -0 1 1 1 2 2 2 2 3 2 2 2 2 2 3 3 2 2 1 1 0 -0 -1 -1 -1 -2 -2 -2 -3 -3 -4 -4 -4 -5 -5 -5 -6 -7 -7 -7
-3 -3 -2 -2 -1 0 1 1 2 2 2 2 2 2 1 1 2 2 2 2 2 2 2 1 1 0 -0 -1 -1 -1 -2 -2 -3 -3 -3 -4 -4 -4 -5 -5 -5 -6 -7 -7
Height
3110 3112 3112 3114 3115 3115 3114 3113 3111 3111 3111 3109 3108 3108 3108 3109 3109 3108 3108 3107 3108 3109 3110 3111 3110 3110 3109 3108 3106 3103 3099 3095 3092 3086 3080 3075 3068 3058 3051 3042 3031 3021 3013 3004
3109 3109 3111 3111 3112 3111 3111 3110 3110 3110 3109 3108 3105 3104 3104 3103 3105 3106 3106 3106 3106 3107 3109 3110 3109 3108 3108 3107 3105 3102 3098 3094 3089 3084 3078 3071 3062 3055 3047 3036 3027 3017 3008 3000
3106 3109 3108 3109 3109 3109 3107 3106 3106 3107 3105 3104 3103 3099 3100 3100 3100 3099 3101 3103 3103 3104 3107 3108 3107 3107 3106 3105 3104 3101 3097 3092 3088 3081 3075 3068 3059 3053 3046 3036 3025 3014 3006 2999
3104 3104 3105 3106 3105 3106 3100 3103 3103 3103 3104 3103 3102 3098 3096 3095 3094 3093 3096 3098 3100 3101 3105 3106 3106 3105 3105 3104 3102 3099 3096 3091 3086 3079 3074 3066 3059 3051 3041 3029 3018 3011 3005 2998
3102 3102 3103 3103 3102 3102 3097 3098 3098 3099 3099 3099 3100 3100 3092 3091 3089 3089 3090 3093 3097 3099 3102 3104 3104 3103 3103 3103 3101 3099 3094 3089 3083 3077 3071 3063 3057 3049 3038 3026 3018 3012 3005 2997
3097 3099 3101 3101 3100 3099 3097 3095 3094 3096 3098 3098 3097 3098 3088 3089 3088 3087 3088 3091 3094 3097 3100 3101 3101 3101 3102 3102 3100 3097 3092 3087 3081 3076 3069 3063 3056 3047 3035 3026 3018 3011 3003 2996
3095 3096 3097 3098 3098 3098 3098 3097 3095 3099 3099 3097 3094 3095 3088 3089 3088 3088 3089 3090 3092 3095 3098 3099 3099 3100 3102 3102 3099 3095 3091 3085 3080 3074 3069 3063 3055 3043 3032 3023 3015 3008 3001 2995
3094 3094 3095 3096 3096 3095 3095 3099 3098 3104 3100 3096 3094 3091 3088 3088 3087 3087 3086 3088 3091 3094 3096 3098 3099 3100 3101 3100 3097 3094 3089 3084 3079 3074 3069 3062 3052 3042 3031 3023 3014 3007 3000 2994
3094 3093 3093 3094 3094 3096 3097 3097 3098 3097 3096 3099 3092 3088 3090 3087 3086 3086 3086 3088 3090 3093 3095 3098 3098 3100 3101 3099 3096 3093 3088 3083 3079 3074 3068 3060 3051 3042 3032 3023 3015 3008 3002 2995
3095 3093 3093 3093 3093 3093 3094 3096 3098 3098 3101 3102 3088 3089 3087 3087 3086 3086 3087 3088 3090 3092 3095 3097 3098 3100 3100 3098 3095 3091 3087 3083 3079 3074 3067 3060 3051 3041 3033 3025 3018 3010 3003 2996
3094 3094 3093 3092 3092 3092 3095 3095 3096 3098 3098 3097 3099 3088 3087 3087 3086 3086 3087 3088 3090 3093 3096 3097 3098 3099 3098 3096 3094 3090 3087 3083 3078 3073 3068 3060 3051 3043 3035 3027 3019 3011 3004 2997
3093 3092 3090 3091 3090 3090 3091 3092 3094 3095 3097 3095 3096 3091 3087 3086 3085 3086 3087 3088 3089 3093 3095 3096 3098 3098 3097 3095 3093 3089 3086 3082 3079 3075 3068 3060 3052 3044 3037 3029 3021 3013 3005 2998
3093 3092 3090 3089 3090 3088 3089 3090 3091 3092 3091 3091 3094 3087 3085 3085 3086 3086 3087 3088 3090 3092 3094 3096 3097 3098 3096 3095 3092 3089 3086 3083 3080 3075 3068 3061 3054 3047 3040 3032 3024 3015 3008 3001
3091 3090 3090 3088 3086 3087 3087 3086 3087 3085 3088 3087 3084 3080 3083 3084 3086 3086 3086 3087 3090 3092 3094 3096 3097 3097 3096 3093 3091 3089 3087 3084 3081 3075 3069 3063 3057 3050 3043 3035 3027 3019 3011 3005
3089 3085 3086 3083 3083 3083 3082 3083 3082 3082 3082 3082 3080 3077 3077 3081 3084 3085 3086 3087 3089 3091 3093 3095 3096 3096 3095 3093 3092 3090 3088 3086 3081 3076 3071 3066 3059 3053 3046 3040 3031 3022 3015 3008
3087 3084 3082 3077 3078 3077 3076 3078 3078 3078 3078 3077 3076 3073 3074 3076 3079 3082 3084 3086 3089 3091 3093 3095 3095 3095 3094 3093 3092 3091 3089 3086 3082 3078 3074 3068 3062 3056 3051 3044 3036 3027 3020 3013
3084 3083 3080 3074 3074 3073 3073 3072 3072 3073 3074 3075 3071 3071 3072 3072 3075 3078 3082 3086 3089 3090 3092 3094 3094 3095 3094 3094 3093 3092 3090 3087 3084 3080 3076 3071 3066 3060 3055 3048 3042 3034 3025 3018
3078 3080 3079 3075 3074 3076 3072 3071 3070 3070 3070 3070 3067 3067 3070 3072 3074 3077 3081 3086 3088 3090 3092 3093 3094 3095 3094 3095 3094 3093 3091 3088 3085 3083 3079 3075 3069 3064 3059 3054 3048 3040 3032 3025
3073 3078 3079 3076 3077 3073 3071 3069 3069 3070 3069 3066 3065 3066 3068 3071 3072 3076 3080 3084 3088 3090 3091 3093 3095 3095 3095 3095 3096 3095 3092 3090 3088 3086 3083 3078 3074 3069 3064 3059 3053 3046 3040 3033
3069 3073 3078 3076 3076 3074 3071 3071 3069 3069 3068 3066 3064 3065 3066 3068 3071 3075 3078 3082 3086 3089 3092 3093 3094 3096 3096 3096 3097 3096 3093 3092 3090 3089 3086 3082 3079 3074 3070 3065 3059 3053 3047 3041
3065 3069 3073 3075 3076 3072 3072 3069 3068 3069 3072 3065 3063 3062 3066 3069 3071 3073 3078 3081 3086 3089 3092 3093 3095 3096 3096 3097 3098 3096 3095 3094 3094 3092 3090 3086 3083 3079 3074 3069 3064 3060 3054 3049
3063 3066 3069 3074 3076 3073 3071 3071 3071 3070 3067 3066 3065 3065 3067 3068 3071 3074 3078 3083 3086 3089 3092 3094 3095 3096 3097 3098 3098 3097 3097 3096 3096 3095 3094 3090 3087 3084 3079 3075 3071 3066 3062 3057
3065 3066 3069 3071 3071 3070 3070 3070 3069 3067 3065 3065 3066 3068 3069 3070 3073 3076 3080 3084 3088 3090 3092 3094 3095 3096 3097 3099 3099 3099 3099 3099 3099 3098 3097 3094 3091 3089 3085 3081 3077 3073 3069 3066
3063 3065 3066 3069 3068 3068 3069 3069 3067 3066 3064 3063 3064 3067 3070 3072 3075 3079 3083 3086 3089 3091 3093 3095 3096 3097 3098 3100 3100 3101 3101 3102 3101 3101 3099 3098 3096 3094 3090 3086 3083 3079 3076 3073
3062 3064 3065 3067 3065 3066 3068 3067 3066 3065 3064 3063 3064 3068 3071 3073 3076 3081 3084 3088 3090 3093 3094 3096 3097 3098 3099 3101 3102 3102 3103 3104 3104 3103 3102 3101 3100 3098 3095 3092 3089 3086 3083 3079
3060 3063 3065 3066 3064 3066 3066 3066 3065 3065 3064 3064 3066 3069 3071 3075 3079 3083 3087 3090 3092 3094 3096 3097 3098 3099 3100 3102 3103 3104 3105 3106 3105 3105 3104 3103 3103 3102 3100 3097 3094 3092 3089 3087
Wind_Speed
15 16 18 19 19 25 29 20 18 17 14 19 21 23 20 17 16 13 11 7 7 6 9 4 3 7 11 16 21 25 30 32 33 34 35 36 37 40 41 42 43 40 37 37
15 16 15 17 19 21 21 26 22 19 13 17 18 20 18 21 19 14 11 10 8 10 8 4 3 7 12 17 21 25 31 33 34 34 36 38 40 40 42 43 41 38 37 37
17 13 8 17 17 19 21 23 22 25 25 22 17 24 20 21 20 22 19 16 14 12 9 5 4 7 12 17 21 26 32 33 33 34 36 38 40 40 39 40 37 36 36 36
16 9 9 12 16 21 27 23 22 20 20 14 9 7 12 20 20 17 17 20 15 14 9 5 3 7 12 16 21 26 32 32 33 34 35 37 38 39 41 41 39 36 35 36
21 16 18 16 10 14 21 25 20 18 16 12 9 9 12 22 22 13 14 19 18 13 6 1 5 9 12 16 21 27 31 31 32 33 35 37 38 39 40 40 36 32 32 35
19 18 18 18 19 21 12 12 10 7 6 3 11 10 15 7 4 2 7 13 18 14 7 3 6 7 12 16 22 28 29 30 31 33 35 36 36 37 39 38 34 32 32 33
14 15 15 17 19 14 7 9 1 1 1 4 4 6 16 10 7 2 3 10 13 13 9 5 4 8 12 17 22 28 28 29 30 32 34 34 35 38 41 40 37 34 33 33
9 5 9 11 13 10 11 7 4 5 0 4 10 6 3 7 7 10 6 10 13 12 10 6 5 10 13 17 23 25 25 27 29 31 32 32 35 38 40 39 36 34 33 34
6 7 11 7 10 10 1 8 8 4 6 4 6 8 14 15 8 5 4 6 8 10 8 3 6 10 13 18 23 22 24 26 28 29 31 32 35 37 39 39 36 33 32 33
5 5 4 5 3 3 11 12 1 2 1 3 5 5 7 12 4 2 3 0 6 9 7 5 8 10 13 19 20 21 23 24 25 28 30 32 34 37 40 38 35 32 30 31
6 6 6 7 7 12 10 5 5 4 5 3 1 1 12 17 12 3 0 3 6 6 4 5 7 9 14 17 18 19 21 22 24 27 29 31 33 36 39 38 35 32 31 30
8 6 6 11 10 9 12 16 20 8 3 1 2 9 3 19 9 4 3 6 10 9 4 6 7 10 13 14 16 17 19 21 23 26 28 30 32 36 38 38 36 33 31 30
10 2 4 2 8 12 16 18 16 14 15 16 4 9 15 16 20 4 5 7 9 7 6 6 7 10 11 12 13 16 18 20 23 25 27 29 31 34 37 37 37 34 32 30
9 11 12 9 4 6 8 14 19 20 14 15 24 25 18 21 16 6 6 8 7 6 7 7 7 8 8 10 13 14 16 19 22 24 26 28 31 33 36 37 37 36 34 31
8 12 15 19 24 20 20 16 20 23 24 21 24 28 22 8 13 6 7 8 8 8 7 5 4 5 6 9 11 12 16 19 21 23 26 28 30 32 35 36 37 38 37 33
13 11 16 25 19 22 21 18 20 25 21 23 23 24 18 24 11 13 9 9 6 7 6 3 2 3 4 8 9 12 16 18 20 22 24 27 29 31 33 35 37 37 38 37
22 10 10 12 13 11 13 23 24 25 22 23 25 13 15 8 14 10 12 11 5 5 4 4 2 1 5 6 8 13 15 16 18 21 24 26 27 29 31 34 36 38 39 39
19 14 10 7 8 2 5 7 8 12 14 18 16 7 7 4 5 10 9 11 6 5 6 6 3 3 4 5 10 13 13 15 17 21 23 25 26 28 30 33 35 38 39 39
21 19 10 3 4 12 8 7 3 8 12 12 8 9 12 10 10 15 16 16 7 8 11 8 5 4 4 7 11 11 12 14 17 20 22 24 25 27 28 30 33 36 39 39
18 19 16 2 2 2 6 12 10 11 4 8 1 12 15 13 8 10 18 20 14 14 11 7 5 4 6 9 10 10 11 13 15 19 21 23 25 26 27 29 31 34 37 40
12 16 22 10 3 6 6 12 7 4 8 12 10 10 16 6 5 16 20 21 17 14 10 8 7 7 7 8 10 9 10 12 14 17 19 21 23 25 25 28 30 32 35 37
12 13 16 16 4 6 3 13 9 11 12 7 5 9 14 13 12 18 21 21 17 14 11 10 7 7 7 8 9 8 9 11 13 15 18 20 22 24 25 27 28 31 32 34
1 5 3 8 2 5 9 14 16 15 9 1 7 10 11 14 15 21 23 21 17 14 11 10 8 8 7 8 8 7 8 10 12 14 16 18 20 24 25 26 27 30 31 32
2 7 10 7 9 13 15 11 10 8 6 2 11 15 13 15 18 23 22 18 15 13 12 10 9 8 7 8 6 6 8 9 11 13 14 16 19 22 24 25 26 28 29 30
8 6 4 5 14 7 3 12 7 6 3 4 14 17 17 19 19 20 19 17 15 12 11 10 9 8 7 7 6 6 7 8 11 12 12 15 17 20 22 23 25 27 28 29
6 4 1 5 2 4 6 9 4 3 4 10 18 20 22 19 19 19 18 16 13 11 9 9 9 8 6 7 6 5 6 8 10 11 12 13 16 17 19 20 22 24 26 27
Wind_Direction
268 260 263 269 271 271 272 287 292 294 293 285 288 286 281 279 278 278 267 262 287 279 260 247 38 18 358 357 351 346 346 343 340 339 339 336 339 343 340 339 342 342 342 345
279 277 276 271 267 272 273 279 283 287 309 308 296 284 270 267 279 279 257 256 273 276 284 253 8 9 349 348 345 341 343 341 338 339 339 338 344 342 340 344 344 345 348 346
279 281 280 290 276 289 281 284 279 266 302 305 293 286 279 279 279 270 245 237 240 256 269 256 347 343 335 339 339 338 340 338 337 341 341 342 344 341 342 344 347 350 348 347
281 289 290 299 293 303 289 277 279 283 280 281 284 284 293 294 289 277 240 236 233 244 260 263 336 315 318 329 330 335 337 334 339 343 341 343 342 342 345 350 355 353 348 348
254 268 293 302 310 313 298 279 280 279 264 263 270 266 304 298 290 290 248 226 222 234 241 232 300 297 307 317 328 332 332 336 342 343 343 345 344 345 349 355 355 352 351 351
277 261 278 278 288 303 303 263 242 233 232 279 281 248 294 306 2 190 181 191 210 219 213 227 253 292 300 318 325 329 334 339 343 343 346 344 345 349 355 357 356 355 354 354
299 256 285 277 279 286 264 228 77 297 319 228 304 275 275 282 258 211 218 222 212 210 210 236 295 291 297 314 323 329 334 341 343 345 345 346 349 355 359 359 358 358 357 357
280 261 254 263 277 289 220 337 12 202 207 293 313 244 315 309 296 260 234 209 214 209 217 242 274 271 292 313 322 329 338 343 346 345 345 350 357 360 1 1 0 359 358 0
313 258 274 275 270 269 310 256 278 345 297 286 258 278 307 291 276 242 218 236 214 210 221 265 262 266 296 315 323 334 343 345 345 346 350 356 2 3 3 4 2 360 360 4
313 271 277 218 236 278 238 247 213 182 313 288 301 308 286 316 329 285 270 254 192 202 216 239 245 273 305 317 329 343 345 342 347 349 357 1 4 5 7 7 4 3 5 9
334 281 271 235 254 231 222 215 197 215 238 162 314 302 356 311 304 280 8 134 169 193 211 232 250 291 310 323 340 344 343 345 352 355 1 4 7 8 10 9 8 8 11 13
323 300 264 249 251 264 258 256 234 227 212 23 349 286 312 340 299 251 160 159 172 193 207 228 262 299 316 335 343 344 346 353 355 1 5 8 9 11 12 12 13 13 15 16
320 296 287 287 264 260 249 258 236 223 240 239 217 256 292 313 332 248 172 172 171 190 220 248 285 307 329 341 342 350 352 359 0 5 9 10 13 13 14 15 17 18 20 20
290 262 251 254 253 290 265 262 252 249 249 263 254 278 281 293 309 259 221 175 178 202 230 257 290 318 335 344 351 353 358 4 7 9 11 14 15 15 17 19 20 22 23 23
290 270 277 276 258 272 265 267 278 270 287 253 287 284 298 274 299 262 234 204 189 213 230 252 299 321 345 355 356 356 9 10 10 12 15 17 17 18 20 22 24 27 27 27
282 286 290 277 275 270 262 271 279 277 275 279 286 286 303 274 273 226 217 203 187 197 211 231 276 342 355 10 358 10 18 13 13 15 19 20 20 21 22 26 28 30 31 31
281 289 291 273 298 280 288 268 264 277 275 288 283 292 292 289 230 234 219 182 158 170 174 170 180 35 30 12 13 27 21 16 17 20 23 23 23 24 25 30 32 33 34 35
245 247 283 298 341 3 309 308 295 271 274 289 299 274 225 221 162 180 181 179 175 167 161 158 132 86 48 27 34 33 23 20 20 26 26 27 26 27 28 33 36 37 37 37
238 241 260 218 252 303 13 19 340 293 313 298 286 195 190 201 188 175 161 162 171 156 159 151 136 100 69 47 43 38 28 26 26 30 30 30 30 31 32 34 39 42 41 40
217 232 221 195 298 273 0 341 325 332 12 5 302 203 201 208 214 182 173 172 175 162 146 142 129 109 77 56 51 45 32 29 31 34 34 33 34 34 35 37 40 43 45 43
185 215 217 217 298 271 325 348 335 336 338 353 334 219 201 150 138 161 170 172 161 156 147 147 133 102 78 63 58 51 35 32 37 38 38 38 39 40 39 40 42 43 47 47
186 181 206 225 252 268 327 355 351 320 319 348 56 118 153 145 140 155 166 165 156 157 150 145 128 103 85 68 61 54 40 38 41 42 43 41 43 43 42 43 43 44 46 48
283 186 200 205 248 306 321 322 317 327 324 250 169 153 155 142 141 154 159 152 152 148 147 138 124 108 93 73 65 60 49 44 45 47 46 45 46 47 45 46 45 46 45 46
312 228 232 267 251 263 267 319 334 332 1 194 173 170 162 155 150 159 157 154 151 144 135 130 120 110 101 82 74 66 58 50 50 52 49 49 49 49 48 46 48 49 46 47
278 188 186 274 280 177 325 341 336 333 351 134 156 157 155 153 149 163 156 157 149 139 130 128 118 114 106 94 80 74 68 58 56 56 51 52 51 52 50 48 48 50 50 49
118 79 168 232 78 288 319 335 316 57 106 140 145 152 142 145 157 157 158 159 148 133 130 120 113 114 115 102 90 83 75 67 63 61 55 52 52 53 53 49 48 50 51 52